Location: Unspecified
(0.0000°N, 0.0000°E)
Time: 01:16:14
(UTC+00:00)

S-56A Canister/Altair - Pass Details

Date: 21 April 2019
Orbit: 632 x 2500 km, 38.9° (Epoch: 15 July)

Event Time Altitude Azimuth Distance (km) Brightness Sun altitude
Rises 20:06:57 0° 299° (WNW) 3,412 11.9 -31.3°
Reaches altitude 10° 20:09:50 10° 292° (WNW) 2,286 10.8 -32.0°
Enters shadow 20:13:14 32° 260° (W) 1,165 8.8 -32.8°
